Hourly Weather Çayıralan

Today, 15 June, Tuesday

Time Temperature Precipitation Wind Pressure Humidity
00:00 +13°C° 0 mm 1 mps 642 mmHg 74%
01:00 +12°C° 0 mm 1 mps 642 mmHg 75%
02:00 +12°C° 0 mm 1 mps 642 mmHg 77%
03:00 +12°C° 0 mm 1 mps 642 mmHg 77%
04:00 +12°C° 0 mm 1 mps 642 mmHg 77%
05:00 +12°C° 0 mm 1 mps 643 mmHg 78%
06:00 +14°C° 0 mm 1 mps 643 mmHg 71%
07:00 +16°C° 0 mm 1 mps 644 mmHg 63%
08:00 +18°C° 0 mm 1 mps 644 mmHg 57%
09:00 +19°C° 0 mm 1 mps 644 mmHg 52%
10:00 +21°C° 0 mm 1 mps 645 mmHg 46%
11:00 +21°C° 0 mm 2 mps 645 mmHg 40%
12:00 +23°C° 0 mm 2 mps 645 mmHg 38%
13:00 +24°C° 0 mm 2 mps 645 mmHg 35%
14:00 +24°C° 0 mm 2 mps 645 mmHg 33%
15:00 +24°C° 0 mm 2 mps 644 mmHg 34%
16:00 +24°C° 0 mm 3 mps 644 mmHg 35%
17:00 +22°C° 0 mm 3 mps 644 mmHg 35%
18:00 +20°C° 0 mm 2 mps 643 mmHg 44%
19:00 +18°C° 0 mm 2 mps 643 mmHg 52%
20:00 +16°C° 0 mm 2 mps 643 mmHg 60%
21:00 +15°C° 0 mm 1 mps 642 mmHg 62%
22:00 +14°C° 0 mm 1 mps 642 mmHg 65%
23:00 +14°C° 0 mm 1 mps 642 mmHg 68%

Tomorrow, 16 June, Wednesday

Time Temperature Precipitation Wind Pressure Humidity
00:00 +13°C° 0 mm 1 mps 642 mmHg 70%
01:00 +12°C° 0 mm 1 mps 642 mmHg 73%
02:00 +12°C° 0 mm 1 mps 642 mmHg 75%
03:00 +11°C° 0 mm 0 mps 642 mmHg 76%
04:00 +11°C° 0 mm 0 mps 642 mmHg 76%
05:00 +11°C° 0 mm 0 mps 642 mmHg 77%
06:00 +13°C° 0 mm 0 mps 642 mmHg 71%
07:00 +16°C° 0 mm 1 mps 642 mmHg 65%
08:00 +19°C° 0 mm 1 mps 643 mmHg 58%
09:00 +20°C° 0 mm 1 mps 643 mmHg 53%
10:00 +20°C° 0 mm 2 mps 643 mmHg 48%
11:00 +22°C° 0 mm 3 mps 643 mmHg 43%
12:00 +22°C° 0.1 mm 4 mps 643 mmHg 43%
13:00 +21°C° 0.1 mm 5 mps 642 mmHg 44%
14:00 +21°C° 0.1 mm 7 mps 642 mmHg 45%
15:00 +19°C° 0.7 mm 6 mps 642 mmHg 54%
16:00 +16°C° 0.7 mm 5 mps 642 mmHg 64%
17:00 +13°C° 0.7 mm 4 mps 642 mmHg 74%
18:00 +13°C° 0.8 mm 3 mps 643 mmHg 75%
19:00 +14°C° 0.8 mm 2 mps 643 mmHg 77%
20:00 +13°C° 0.8 mm 2 mps 644 mmHg 79%
21:00 +13°C° 0.1 mm 2 mps 644 mmHg 78%
22:00 +13°C° 0.1 mm 2 mps 644 mmHg 77%
23:00 +12°C° 0.1 mm 2 mps 645 mmHg 76%

Day after tomorrow, 17 June, Thursday

Time Temperature Precipitation Wind Pressure Humidity
00:00 +12°C° 0 mm 2 mps 645 mmHg 77%
01:00 +10°C° 0 mm 2 mps 645 mmHg 78%
02:00 +9°C° 0 mm 2 mps 645 mmHg 80%
03:00 +10°C° 0 mm 2 mps 645 mmHg 79%
04:00 +10°C° 0 mm 2 mps 645 mmHg 79%
05:00 +10°C° 0 mm 2 mps 645 mmHg 78%
06:00 +11°C° 0 mm 3 mps 646 mmHg 74%
07:00 +12°C° 0 mm 4 mps 646 mmHg 70%
08:00 +14°C° 0 mm 4 mps 647 mmHg 66%
09:00 +15°C° 0 mm 4 mps 648 mmHg 59%
10:00 +18°C° 0 mm 4 mps 648 mmHg 53%
11:00 +19°C° 0 mm 4 mps 648 mmHg 46%
12:00 +20°C° 0 mm 4 mps 648 mmHg 44%
13:00 +20°C° 0 mm 4 mps 649 mmHg 41%
14:00 +21°C° 0 mm 4 mps 649 mmHg 39%
15:00 +21°C° 0 mm 4 mps 649 mmHg 39%
16:00 +21°C° 0 mm 3 mps 649 mmHg 40%
17:00 +21°C° 0 mm 3 mps 649 mmHg 40%
18:00 +19°C° 0 mm 3 mps 648 mmHg 47%
19:00 +17°C° 0 mm 2 mps 648 mmHg 53%
20:00 +15°C° 0 mm 2 mps 648 mmHg 60%
21:00 +15°C° 0 mm 2 mps 648 mmHg 62%
22:00 +14°C° 0 mm 1 mps 648 mmHg 64%
23:00 +14°C° 0 mm 1 mps 647 mmHg 66%

18 June, Friday

Time Temperature Precipitation Wind Pressure Humidity
00:00 +13°C° 0 mm 1 mps 647 mmHg 68%
01:00 +13°C° 0 mm 1 mps 647 mmHg 70%
02:00 +12°C° 0 mm 1 mps 646 mmHg 72%
03:00 +11°C° 0 mm 0 mps 647 mmHg 72%
04:00 +12°C° 0 mm 0 mps 647 mmHg 71%
05:00 +12°C° 0 mm 0 mps 647 mmHg 71%
06:00 +14°C° 0 mm 0 mps 647 mmHg 64%
07:00 +16°C° 0 mm 0 mps 648 mmHg 57%
08:00 +20°C° 0 mm 1 mps 648 mmHg 50%
09:00 +21°C° 0 mm 1 mps 649 mmHg 47%
10:00 +22°C° 0 mm 1 mps 649 mmHg 44%
11:00 +23°C° 0 mm 2 mps 649 mmHg 40%
12:00 +24°C° 0 mm 2 mps 649 mmHg 39%
13:00 +25°C° 0 mm 2 mps 649 mmHg 37%
14:00 +25°C° 0 mm 2 mps 648 mmHg 36%
15:00 +25°C° 0 mm 2 mps 648 mmHg 37%
16:00 +25°C° 0 mm 2 mps 648 mmHg 37%
17:00 +25°C° 0 mm 3 mps 648 mmHg 38%
18:00 +23°C° 0 mm 2 mps 648 mmHg 45%
19:00 +20°C° 0 mm 2 mps 647 mmHg 52%
20:00 +18°C° 0 mm 2 mps 647 mmHg 59%
21:00 +17°C° 0 mm 2 mps 647 mmHg 62%
22:00 +16°C° 0 mm 2 mps 647 mmHg 64%
23:00 +16°C° 0 mm 2 mps 647 mmHg 67%

19 June, Saturday

Time Temperature Precipitation Wind Pressure Humidity
00:00 +15°C° 0 mm 2 mps 646 mmHg 69%
01:00 +15°C° 0 mm 2 mps 646 mmHg 71%
02:00 +15°C° 0 mm 2 mps 646 mmHg 72%
03:00 +15°C° 0 mm 2 mps 646 mmHg 72%
04:00 +15°C° 0 mm 2 mps 646 mmHg 72%
05:00 +15°C° 0 mm 2 mps 646 mmHg 72%
06:00 +17°C° 0 mm 2 mps 646 mmHg 63%
07:00 +19°C° 0 mm 2 mps 647 mmHg 55%
08:00 +21°C° 0 mm 2 mps 647 mmHg 47%
09:00 +24°C° 0 mm 2 mps 647 mmHg 43%
10:00 +25°C° 0 mm 2 mps 648 mmHg 38%
11:00 +26°C° 0 mm 2 mps 648 mmHg 33%
12:00 +27°C° 0 mm 2 mps 648 mmHg 32%
13:00 +28°C° 0 mm 3 mps 647 mmHg 30%
14:00 +28°C° 0 mm 3 mps 647 mmHg 29%
15:00 +28°C° 0 mm 3 mps 647 mmHg 31%
16:00 +27°C° 0 mm 3 mps 647 mmHg 33%
17:00 +27°C° 0 mm 4 mps 647 mmHg 36%
18:00 +24°C° 0 mm 3 mps 646 mmHg 44%
19:00 +21°C° 0 mm 3 mps 646 mmHg 53%
20:00 +19°C° 0 mm 3 mps 645 mmHg 62%
21:00 +18°C° 0 mm 3 mps 645 mmHg 64%
22:00 +17°C° 0 mm 2 mps 645 mmHg 66%
23:00 +17°C° 0 mm 2 mps 645 mmHg 67%

20 June, Sunday

Time Temperature Precipitation Wind Pressure Humidity
00:00 +17°C° 0 mm 2 mps 645 mmHg 68%
01:00 +16°C° 0 mm 2 mps 645 mmHg 69%
02:00 +16°C° 0 mm 2 mps 645 mmHg 70%
03:00 +16°C° 0 mm 1 mps 645 mmHg 69%
04:00 +16°C° 0 mm 1 mps 645 mmHg 69%
05:00 +16°C° 0 mm 1 mps 645 mmHg 68%
06:00 +19°C° 0 mm 1 mps 645 mmHg 61%
07:00 +22°C° 0 mm 1 mps 646 mmHg 53%
08:00 +24°C° 0 mm 1 mps 647 mmHg 46%
09:00 +25°C° 0 mm 1 mps 647 mmHg 41%
10:00 +27°C° 0 mm 1 mps 647 mmHg 36%
11:00 +29°C° 0 mm 2 mps 647 mmHg 31%
12:00 +29°C° 0 mm 2 mps 647 mmHg 29%
13:00 +30°C° 0 mm 2 mps 647 mmHg 28%
14:00 +31°C° 0 mm 2 mps 647 mmHg 26%
15:00 +30°C° 0 mm 3 mps 647 mmHg 29%
16:00 +30°C° 0 mm 4 mps 647 mmHg 31%
17:00 +29°C° 0 mm 4 mps 646 mmHg 34%
18:00 +26°C° 0 mm 4 mps 646 mmHg 43%
19:00 +23°C° 0 mm 4 mps 646 mmHg 51%
20:00 +20°C° 0 mm 3 mps 645 mmHg 59%
21:00 +20°C° 0 mm 3 mps 645 mmHg 62%
22:00 +19°C° 0 mm 2 mps 645 mmHg 65%
23:00 +19°C° 0 mm 2 mps 645 mmHg 67%
Show more

We Need Your Consent

Meteoprog and our Service Providers may store and access personal data such as cookies, device identifiers or other similar technologies on your device and process such data to personalise content and ads, as well as provide social media features and to analyse the traffic.

  • Store and/or access information on your device

    Cookies, device identifiers or other information can be stored or accessed on your device for the purposes indicated above.

  • Personalised ads and content, ad and content measurement, audience insights, and products development

    Ads and content can be personalised based on a profile. More data can be added to better personalise ads and content. Ad and content performance can be measured. Insights about the audience who saw the ads and content can be derived. Such data can be used to develop or improve user’s experience, systems and software.

By clicking ‘I Agree’ you will allow the use of indicated cookies, device identifiers, web beacons or other similar technologies. Your settings can be changed in the browser on your device.

For certain purposes, legitimate interests may be relied on, rather than consent. You can read more about this in our Privacy and Cookie Policy.